Location: Celina Division
(33.3022°N, 96.7580°W)
Time: 12:37:30
(UTC+00:00)

Cosmos 1812 - Pass Details

Date: 08 December 2021
Orbit: 513 x 519 km, 82.5° (Epoch: 23 January)

Event Time Altitude Azimuth Distance (km) Brightness Sun altitude
Rises 23:48:12 0° 188° (S) 2,627 6.8 -6.2°
Reaches altitude 10° 23:50:19 10° 190° (S) 1,745 5.9 -6.7°
Maximum altitude 23:54:09 77° 276° (W) 538 2.9 -7.4°
Drops below altitude 10° 23:58:00 10° 3° (N) 1,759 5.2 -8.1°
Sets 00:00:09 0° 5° (N) 2,650 6.0 -8.6°
